sat.trackr.live / text

‹ back to catalog

STARLINK-32031

NORAD 60142 · 2024-120H

PAYLOAD ACTIVE UNKNOWN

§ Identity

Operator
Country
US
Launch date
2024-06-27
Launch site
AFETR
Launch vehicle
Mass (kg)
RCS (m²)

Purposes: comms

External: N2YO · Heavens-Above · Gunter

§ Orbital elements

Epoch: 2026-09-21T20:42:30.676320Z

Period
93.85 min
Inclination
53.1591°
Eccentricity
0.0001243
Mean motion
15.34385149 rev/d
Perigee alt
461.9 km
Apogee alt
463.6 km
Semi-major
6,840.9 km
B*
9.3799e-7
RAAN
124.9989°
Arg perigee
97.0510°
Mean anomaly
263.0634°
Rev number
12,654

§ Raw data

STARLINK-320311 60142U 24120H   26264.86285505 -.00000345  00000+0  93799-6 0  99962 60142  53.1591 124.9989 0001243  97.0510 263.0634 15.34385149126548

JSON: /api/v1/satellites/60142 · /tle

For live sub-satellite position, see the globe view (requires WebGL).

§ Visibility from observer

Set your observer location to see the next 7 days of passes ≥ 10°. The values pass through the URL so the page stays shareable.

No JS? Fill the form by hand. The geolocation button needs JavaScript.